FW6987 Weather Reports


time (UTC)temp
F
wind
direction
speed
knots
gust
knots
rain 1hr
in
rain 24hr
in
rain mn
in
humidity
%
barometer
mb
20260503004552 49 0 1.7 5.2 0.00 0.19 0.19 46 1002.2
20260503003104 50 60 1.7 6.1 0.00 0.19 0.19 42 1001.8
20260503001614 50 104 2.6 6.1 0.00 0.19 0.19 43 1001.7
20260503000121 51 0 0.0 0.0 0.00 0.19 0.19 52 1001.6
20260502234555 51 120 0.9 7.0 0.00 0.19 0.19 44 1001.6
20260502233052 52 115 0.9 5.2 0.00 0.19 0.19 43 1001.5
20260502231553 52 116 0.9 7.0 0.00 0.19 0.19 43 1001.4
20260502230050 53 31 1.7 5.2 0.00 0.19 0.19 42 1001.4
20260502224555 53 153 0.9 3.5 0.00 0.19 0.19 40 1001.3
20260502223052 54 149 0.0 4.3 0.00 0.19 0.19 40 1001.2
20260502221552 55 146 0.9 4.3 0.00 0.19 0.19 40 1001.1
20260502220055 55 0 0.0 3.5 0.00 0.19 0.19 41 1000.9
20260502214602 56 156 0.9 3.5 0.00 0.19 0.19 38 1000.9
20260502213052 56 274 2.6 7.8 0.00 0.19 0.19 36 1000.7
20260502211549 57 152 0.9 6.1 0.00 0.19 0.19 36 1000.5
20260502210107 57 167 1.7 8.7 0.00 0.19 0.19 37 1000.5
20260502204554 57 150 2.6 6.1 0.00 0.19 0.19 39 1000.4
20260502203055 57 235 0.9 5.2 0.00 0.19 0.19 40 1000.5
20260502201609 56 124 0.9 7.8 0.00 0.19 0.19 43 1000.6
20260502200055 57 73 0.9 7.0 0.00 0.19 0.19 45 1000.7
20260502194555 58 154 1.7 5.2 0.00 0.19 0.19 44 1000.9
20260502193053 56 0 0.0 2.6 0.00 0.19 0.19 56 1001.1
20260502191555 56 121 0.9 7.0 0.00 0.19 0.19 51 1001.4
20260502190057 56 168 0.9 2.6 0.00 0.19 0.19 45 1001.5
20260502184605 57 165 0.9 3.5 0.00 0.19 0.19 55 1001.4
20260502183103 55 154 0.9 5.2 0.00 0.19 0.19 51 1001.6
20260502181609 55 0 0.0 3.5 0.00 0.19 0.19 51 1001.5
20260502163058 55 97 1.7 5.2 0.00 0.19 0.19 62 1002.2
20260502161554 52 0 0.0 3.5 0.00 0.19 0.19 58 1002.5
20260502151617 53 103 0.0 3.5 0.00 0.19 0.19 70 1002.7
20260502150105 51 86 1.7 4.3 0.00 0.19 0.19 72 1003.0
20260502123103 46 0 0.0 1.7 0.00 0.19 0.19 94 1002.8
20260502121555 46 0 0.0 1.7 0.00 0.19 0.19 94 1002.5
20260502114551 46 0 0.0 0.0 0.00 0.19 0.19 93 1002.8
20260502113051 45 0 0.0 0.0 0.00 0.19 0.19 93 1002.6
20260502111556 45 0 0.0 0.0 0.00 0.19 0.19 93 1002.6
20260502110100 45 0 0.0 0.0 0.00 0.19 0.19 93 1002.1
20260502104552 45 0 0.0 0.9 0.00 0.19 0.19 93 1002.3
20260502103101 45 0 0.0 0.0 0.00 0.19 0.19 93 1002.3
20260502101626 45 0 0.0 0.0 0.01 0.19 0.19 93 1002.1
20260502100118 45 0 0.0 0.0 0.01 0.19 0.19 93 1001.9
20260502080106 46 0 0.0 0.9 0.05 0.15 0.15 91 1001.7
20260502070055 46 0 0.0 0.9 0.07 0.10 0.10 89 1002.2
20260502064558 47 242 0.0 1.7 0.05 0.08 0.08 89 1002.5
20260502063053 47 0 0.0 1.7 0.02 0.05 0.05 88 1002.8
20260502061554 47 267 0.0 3.5 0.01 0.04 0.04 87 1002.6
20260502060057 47 0 0.0 1.7 0.01 0.03 0.03 87 1002.4
20260502054616 47 0 0.0 2.6 0.03 0.03 0.03 86 1002.4
20260502053113 47 277 0.9 3.5 0.03 0.03 0.03 84 1002.6
20260502051601 47 299 5.2 8.7 0.03 0.03 0.03 83 1002.5
20260502050054 48 281 0.9 3.5 0.02 0.02 0.02 80 1002.5
20260502044552 49 299 1.7 9.6 0.00 0.00 0.00 77 1002.5
20260502043107 49 264 3.5 8.7 0.00 0.00 0.00 74 1002.3
20260502041549 50 289 3.5 10.4 0.00 0.00 0.00 71 1002.4
20260502040057 50 307 6.1 12.2 0.00 0.00 0.00 70 1002.0
20260502034613 51 18 2.6 8.7 0.00 0.00 0.00 67 1002.2
20260502033106 52 0 1.7 5.2 0.00 0.00 0.00 64 1002.2
20260502031556 52 110 0.9 2.6 0.00 0.00 0.00 65 1002.2
20260502030059 52 0 0.0 3.5 0.00 0.00 0.00 62 1002.3
20260502024554 52 235 2.6 6.1 0.00 0.00 0.00 62 1002.3
20260502023109 52 300 1.7 6.1 0.00 0.00 0.00 61 1002.4
20260502021553 52 298 0.9 2.6 0.00 0.00 0.00 60 1002.2
20260502020053 52 0 0.0 3.5 0.00 0.00 0.00 61 1002.1
20260502014551 52 0 0.9 3.5 0.00 0.00 0.00 60 1002.1
20260502013054 53 0 0.0 2.6 0.00 0.00 0.00 60 1002.2
20260502011558 53 359 0.0 4.3 0.00 0.00 0.00 58 1002.2
20260502010056 53 307 0.0 3.5 0.00 0.00 0.00 59 1002.1